カタログに戻る

COSMOS 1275 DEB

運用中PO
NORAD 42155·DEBRIS·🇷🇺 Russia

打ち上げ Jun 4, 1981 から Plesetsk Cosmodrome

Loading…

次のパス (今後24時間)

TLE

経年Source: Space-Track

元期: Sep 7, 2026, 12:22 UTC

1 42155U 81053RT  26250.51581790  .00001444  00000-0  73996-3 0  9995
2 42155  82.9103 180.8339 0037912 245.5603 114.1618 14.14503184656326

AllMySatでCOSMOS 1275 DEBをリアルタイム追跡

Download on the App Store